• In Belgium
  • List of Countries
  • For 7 days
  • Water Temperature
  • Satellite Maps
  • Weather Map
  • Weather Widgets
  • user-avatar
    Login

    Hourly Weather Bruges

    Today, 18 August, Saturday

    Time Temperature Precipitation Wind Pressure Humidity
    00:00 +14°C° 0 mm 4 mps 765 mmHg 85%
    01:00 +14°C° 0 mm 4 mps 765 mmHg 87%
    02:00 +14°C° 0 mm 4 mps 765 mmHg 88%
    03:00 +14°C° 0 mm 4 mps 765 mmHg 90%
    04:00 +14°C° 0 mm 4 mps 765 mmHg 89%
    05:00 +15°C° 0 mm 4 mps 765 mmHg 88%
    06:00 +15°C° 0 mm 4 mps 765 mmHg 87%
    07:00 +18°C° 0 mm 4 mps 766 mmHg 80%
    08:00 +19°C° 0 mm 5 mps 766 mmHg 74%
    09:00 +21°C° 0 mm 5 mps 766 mmHg 68%
    10:00 +21°C° 0 mm 5 mps 766 mmHg 68%
    11:00 +21°C° 0 mm 5 mps 766 mmHg 68%
    12:00 +21°C° 0 mm 5 mps 766 mmHg 67%
    13:00 +21°C° 0 mm 5 mps 765 mmHg 67%
    14:00 +22°C° 0 mm 5 mps 765 mmHg 67%
    15:00 +22°C° 0 mm 6 mps 765 mmHg 66%
    16:00 +21°C° 0 mm 5 mps 765 mmHg 69%
    17:00 +21°C° 0 mm 5 mps 765 mmHg 71%
    18:00 +20°C° 0 mm 4 mps 765 mmHg 73%
    19:00 +20°C° 0 mm 4 mps 766 mmHg 76%
    20:00 +19°C° 0 mm 4 mps 766 mmHg 79%
    21:00 +18°C° 0 mm 4 mps 766 mmHg 82%
    22:00 +17°C° 0 mm 4 mps 766 mmHg 85%
    23:00 +17°C° 0 mm 4 mps 766 mmHg 88%

    Tomorrow, 19 August, Sunday

    Time Temperature Precipitation Wind Pressure Humidity
    00:00 +15°C° 0 mm 4 mps 766 mmHg 91%
    01:00 +15°C° 0 mm 4 mps 766 mmHg 92%
    02:00 +15°C° 0 mm 4 mps 766 mmHg 93%
    03:00 +14°C° 0 mm 4 mps 765 mmHg 94%
    04:00 +15°C° 0 mm 4 mps 766 mmHg 93%
    05:00 +15°C° 0 mm 4 mps 766 mmHg 92%
    06:00 +15°C° 0 mm 4 mps 766 mmHg 91%
    07:00 +18°C° 0 mm 4 mps 766 mmHg 86%
    08:00 +20°C° 0 mm 4 mps 766 mmHg 80%
    09:00 +21°C° 0 mm 5 mps 766 mmHg 74%
    10:00 +22°C° 0 mm 5 mps 765 mmHg 70%
    11:00 +23°C° 0 mm 5 mps 765 mmHg 67%
    12:00 +25°C° 0 mm 5 mps 765 mmHg 64%
    13:00 +26°C° 0 mm 5 mps 764 mmHg 62%
    14:00 +26°C° 0 mm 5 mps 764 mmHg 61%
    15:00 +26°C° 0 mm 6 mps 764 mmHg 59%
    16:00 +24°C° 0 mm 6 mps 764 mmHg 61%
    17:00 +23°C° 0 mm 6 mps 764 mmHg 64%
    18:00 +22°C° 0 mm 6 mps 763 mmHg 66%
    19:00 +21°C° 0 mm 5 mps 764 mmHg 72%
    20:00 +20°C° 0 mm 5 mps 764 mmHg 77%
    21:00 +17°C° 0 mm 5 mps 764 mmHg 83%
    22:00 +17°C° 0 mm 5 mps 764 mmHg 86%
    23:00 +18°C° 0 mm 4 mps 764 mmHg 90%

    Day after tomorrow, 20 August, Monday

    Time Temperature Precipitation Wind Pressure Humidity
    00:00 +17°C° 0 mm 4 mps 764 mmHg 94%
    01:00 +17°C° 0 mm 4 mps 763 mmHg 95%
    02:00 +17°C° 0 mm 4 mps 763 mmHg 96%
    03:00 +17°C° 0 mm 4 mps 763 mmHg 96%
    04:00 +18°C° 0 mm 4 mps 763 mmHg 95%
    05:00 +18°C° 0 mm 3 mps 763 mmHg 94%
    06:00 +19°C° 0 mm 3 mps 764 mmHg 93%
    07:00 +20°C° 0 mm 3 mps 764 mmHg 89%
    08:00 +21°C° 0 mm 3 mps 764 mmHg 84%
    09:00 +22°C° 0 mm 4 mps 764 mmHg 79%
    10:00 +24°C° 0 mm 3 mps 764 mmHg 75%
    11:00 +24°C° 0 mm 3 mps 764 mmHg 71%
    12:00 +25°C° 0 mm 3 mps 764 mmHg 67%
    13:00 +25°C° 0 mm 3 mps 764 mmHg 66%
    14:00 +25°C° 0 mm 3 mps 764 mmHg 65%
    15:00 +25°C° 0 mm 3 mps 764 mmHg 64%
    16:00 +25°C° 0 mm 3 mps 764 mmHg 67%
    17:00 +24°C° 0 mm 3 mps 764 mmHg 70%
    18:00 +24°C° 0 mm 3 mps 764 mmHg 72%
    19:00 +22°C° 0 mm 3 mps 764 mmHg 77%
    20:00 +20°C° 0 mm 3 mps 764 mmHg 81%
    21:00 +19°C° 0 mm 3 mps 764 mmHg 85%
    22:00 +19°C° 0 mm 4 mps 764 mmHg 87%
    23:00 +19°C° 0 mm 4 mps 764 mmHg 88%

    21 August, Tuesday

    Time Temperature Precipitation Wind Pressure Humidity
    00:00 +18°C° 0 mm 4 mps 764 mmHg 90%
    01:00 +18°C° 0 mm 4 mps 764 mmHg 92%
    02:00 +18°C° 0 mm 4 mps 764 mmHg 93%
    03:00 +18°C° 0 mm 4 mps 764 mmHg 95%
    04:00 +18°C° 0 mm 4 mps 764 mmHg 94%
    05:00 +19°C° 0 mm 3 mps 764 mmHg 94%
    06:00 +19°C° 0 mm 3 mps 764 mmHg 93%
    07:00 +21°C° 0 mm 3 mps 764 mmHg 86%
    08:00 +22°C° 0 mm 3 mps 764 mmHg 80%
    09:00 +25°C° 0 mm 3 mps 764 mmHg 73%
    10:00 +25°C° 0 mm 3 mps 764 mmHg 69%
    11:00 +26°C° 0 mm 4 mps 764 mmHg 65%
    12:00 +27°C° 0 mm 4 mps 764 mmHg 61%
    13:00 +27°C° 0 mm 4 mps 763 mmHg 62%
    14:00 +27°C° 0 mm 4 mps 763 mmHg 63%
    15:00 +27°C° 0 mm 4 mps 763 mmHg 64%
    16:00 +26°C° 0 mm 4 mps 763 mmHg 67%
    17:00 +25°C° 0 mm 4 mps 763 mmHg 71%
    18:00 +23°C° 0 mm 4 mps 763 mmHg 75%
    19:00 +22°C° 0 mm 4 mps 763 mmHg 80%
    20:00 +21°C° 0 mm 4 mps 763 mmHg 84%
    21:00 +20°C° 0 mm 4 mps 764 mmHg 89%
    22:00 +20°C° 0 mm 4 mps 764 mmHg 89%
    23:00 +20°C° 0 mm 3 mps 764 mmHg 89%

    22 August, Wednesday

    Time Temperature Precipitation Wind Pressure Humidity
    00:00 +20°C° 0 mm 3 mps 764 mmHg 89%
    01:00 +20°C° 0 mm 3 mps 764 mmHg 90%
    02:00 +19°C° 0 mm 3 mps 764 mmHg 90%
    03:00 +19°C° 0 mm 3 mps 764 mmHg 90%
    04:00 +19°C° 0 mm 3 mps 764 mmHg 89%
    05:00 +19°C° 0 mm 2 mps 764 mmHg 88%
    06:00 +19°C° 0 mm 2 mps 765 mmHg 87%
    07:00 +20°C° 0 mm 2 mps 765 mmHg 79%
    08:00 +23°C° 0 mm 2 mps 765 mmHg 71%
    09:00 +24°C° 0 mm 2 mps 765 mmHg 63%
    10:00 +25°C° 0 mm 2 mps 765 mmHg 59%
    11:00 +26°C° 0 mm 2 mps 765 mmHg 55%
    12:00 +26°C° 0 mm 3 mps 765 mmHg 52%
    13:00 +26°C° 0 mm 3 mps 765 mmHg 52%
    14:00 +27°C° 0 mm 3 mps 765 mmHg 53%
    15:00 +27°C° 0 mm 4 mps 764 mmHg 53%
    16:00 +26°C° 0 mm 4 mps 764 mmHg 58%
    17:00 +23°C° 0 mm 4 mps 764 mmHg 63%
    18:00 +22°C° 0 mm 4 mps 764 mmHg 67%
    19:00 +21°C° 0 mm 4 mps 764 mmHg 70%
    20:00 +20°C° 0 mm 4 mps 765 mmHg 74%
    21:00 +19°C° 0 mm 3 mps 765 mmHg 77%
    22:00 +18°C° 0 mm 3 mps 764 mmHg 76%
    23:00 +18°C° 0 mm 3 mps 764 mmHg 76%

    23 August, Thursday

    Time Temperature Precipitation Wind Pressure Humidity
    00:00 +18°C° 0 mm 3 mps 764 mmHg 75%
    01:00 +18°C° 0 mm 3 mps 764 mmHg 75%
    02:00 +18°C° 0 mm 3 mps 763 mmHg 75%
    03:00 +17°C° 0 mm 2 mps 763 mmHg 74%
    04:00 +18°C° 0 mm 2 mps 763 mmHg 75%
    05:00 +18°C° 0 mm 2 mps 763 mmHg 75%
    06:00 +18°C° 0 mm 2 mps 762 mmHg 75%
    07:00 +20°C° 0 mm 2 mps 762 mmHg 70%
    08:00 +23°C° 0 mm 2 mps 762 mmHg 64%
    09:00 +25°C° 0 mm 2 mps 762 mmHg 58%
    10:00 +26°C° 0 mm 2 mps 761 mmHg 56%
    11:00 +27°C° 0 mm 2 mps 761 mmHg 54%
    12:00 +28°C° 0 mm 2 mps 761 mmHg 51%
    13:00 +28°C° 0.1 mm 3 mps 760 mmHg 52%
    14:00 +28°C° 0.1 mm 3 mps 760 mmHg 54%
    15:00 +28°C° 0.1 mm 3 mps 759 mmHg 55%
    16:00 +27°C° 0.1 mm 4 mps 759 mmHg 60%
    17:00 +25°C° 0.1 mm 4 mps 759 mmHg 65%
    18:00 +23°C° 0.1 mm 4 mps 758 mmHg 70%
    19:00 +22°C° 0 mm 4 mps 758 mmHg 74%
    20:00 +21°C° 0 mm 5 mps 758 mmHg 77%
    21:00 +19°C° 0 mm 5 mps 758 mmHg 80%
    22:00 +19°C° 0 mm 5 mps 758 mmHg 81%
    23:00 +17°C° 0 mm 6 mps 757 mmHg 82%
    Show more